[[{"header":{"parameterUnit":"m.s-1","parameterCategory":2,"la1":30.2991,"la2":30.254,"lo1":-89.0895,"lo2":-89.0444,"dy":0.0017,"dx":0.0017,"nx":28,"ny":28,"refTime":"2024-06-20T03:00:00:Z","depth":"0","parameterNumber":2,"parameterNumberName":"U-component_of_CURRENTS"},"data":[0,0,0,0,0,0,0,0,0,0,0,0,0,0,0,0,0,0,0,0,0,0,0,0,0,0,0,0,0,0,0,0,0,0,0,0,0,0,0,0,0,0,0,0,0,0,0,0,0,0,0,0,0,0,0,0,0,0,0.3292,0.3287,0,0.2779,0.2772,0.2766,0.2551,0.2552,0.2554,0.2555,0.2478,0.2475,0.2472,0,0,0,0,0,0,0,0,0,0,0,0,0,0.371,0.3705,0.3293,0.3286,0.328,0.278,0.2772,0.2765,0.2551,0.2552,0.2554,0.2556,0.2479,0.2475,0.2471,0,0,0,0,0,0,0,0,0,0,0,0,0,0.3393,0.3704,0.3294,0.3116,0.3095,0.2781,0.2772,0.2763,0.255,0.2552,0.2554,0.2556,0.248,0.2476,0.2471,0.24,0,0,0.2456,0.2453,0,0,0,0,0,0,0,0,0.3412,0.3378,0.3148,0.3128,0.3104,0.2734,0.289,0.2664,0.255,0.2753,0.2555,0.2557,0.2605,0.259,0.2477,0.2396,0.2393,0.2455,0.2452,0.245,0.2449,0,0,0,0,0,0,0,0.3435,0.3397,0.3085,0.3142,0.3114,0.2932,0.2893,0.2842,0.268,0.2736,0.272,0.2668,0.2596,0.2482,0.2476,0.2392,0.2455,0.2451,0.2448,0.2446,0.2368,0.2369,0,0,0,0,0,0,0.3522,0.3419,0.3102,0.307,0.327,0.2925,0.288,0.2848,0.267,0.2642,0.2667,0.266,0.2489,0.2481,0.2473,0.2466,0.245,0.2445,0.2443,0.2367,0.2368,0.2369,0,0,0,0,0,0,0.3533,0.3499,0.3122,0.3234,0.3175,0.2919,0.2882,0.2837,0.2725,0.2613,0.2594,0.2604,0.2491,0.248,0.2448,0.246,0.2443,0.2439,0.2366,0.2368,0.2369,0.24,0,0,0,0,0,0,0.3548,0.3507,0.349,0.3242,0.3172,0.2917,0.2879,0.2825,0.2692,0.2678,0.2554,0.2546,0.2492,0.2455,0.2443,0.2453,0.2435,0.2365,0.2367,0.2368,0.2398,0.2402,0.2406,0,0,0,0,0,0.3565,0.3481,0.3493,0.3453,0.3166,0.2914,0.2858,0.2681,0.2688,0.2599,0.2569,0.2551,0.2459,0.2451,0.2436,0.2445,0.2364,0.2366,0.2368,0.2396,0.2401,0.2406,0,0,0,0,0,0,0.3566,0.3446,0.3453,0.3321,0.3154,0.288,0.2765,0.269,0.2575,0.2591,0.2539,0.2526,0.251,0.2477,0.247,0.2434,0.2418,0.2417,0.2444,0.2449,0.2453,0.2481,0.2431,0,0,0,0,0,0.3597,0.3553,0.3383,0.3273,0.3214,0.302,0.2898,0.2785,0.2654,0.2598,0.2542,0.2513,0.2496,0.2476,0.2434,0.2398,0.2409,0.2405,0.2409,0.2412,0.2428,0.246,0.2469,0.2376,0.2376,0.2376,0,0,0.3549,0.3489,0.3448,0.3281,0.315,0.3014,0.2947,0.2752,0.2671,0.2624,0.2534,0.252,0.2494,0.2453,0.2445,0.2431,0.2444,0.2415,0.2418,0.2432,0.2464,0.2473,0.2481,0.2377,0.2377,0.2377,0,0,0.3393,0.3414,0.3312,0.322,0.3054,0.2967,0.2939,0.272,0.2669,0.2574,0.2566,0.2568,0.2485,0.2474,0.2468,0.2477,0.2471,0.2471,0.2499,0.2529,0.2537,0.2545,0.2567,0.2576,0.2465,0.2465,0.2465,0,0.3334,0.3241,0.3218,0.3102,0.3048,0.298,0.2855,0.2769,0.2574,0.2583,0.2565,0.2525,0.2499,0.2513,0.2513,0.2487,0.2501,0.2477,0.2535,0.2543,0.255,0.257,0.258,0.2467,0.2466,0.2466,0.2466,0,0.3108,0.3058,0.2986,0.2914,0.284,0.2717,0.2666,0.2625,0.2628,0.2566,0.2581,0.2543,0.2532,0.2531,0.2518,0.2564,0.2557,0.2543,0.2523,0.2561,0.258,0.259,0.2469,0.2469,0.2468,0.2468,0,0,0.2893,0.2852,0.2823,0.2837,0.277,0.2678,0.2658,0.2615,0.264,0.2557,0.2582,0.2569,0.2587,0.2585,0.2584,0.261,0.2666,0.2599,0.2599,0.2621,0.2734,0.2709,0.2716,0.2661,0.2663,0.2664,0.2725,0,0.2726,0.2589,0.2599,0.2506,0.247,0.2526,0.2523,0.251,0.2544,0.2559,0.2603,0.2609,0.2599,0.2612,0.2641,0.2667,0.2693,0.2651,0.2694,0.2695,0.2669,0.2728,0.259,0.2632,0.2735,0.2736,0.2737,0,0.2492,0.2482,0.2385,0.2456,0.2442,0.2395,0.2511,0.2481,0.2552,0.2583,0.2632,0.2651,0.2703,0.2682,0.2753,0.2727,0.2739,0.2753,0.2755,0.2732,0.2689,0.2611,0.2645,0.2572,0.2752,0.275,0.2749,0,0.2422,0.2339,0.2327,0.2327,0.2357,0.2378,0.2414,0.2488,0.2527,0.261,0.2644,0.2707,0.2739,0.2777,0.2809,0.2785,0.2886,0.2848,0.2838,0.2835,0.2728,0.2713,0.2698,0.2901,0.2901,0.2901,0.2901,0,0.2292,0.2265,0.2305,0.2296,0.2317,0.2355,0.2399,0.2454,0.2539,0.2591,0.2652,0.2706,0.2767,0.2823,0.284,0.2881,0.291,0.2867,0.286,0.2734,0.2719,0.2659,0.2614,0.2903,0.2903,0.2902,0.2902,0,0.2196,0.2211,0.2204,0.2259,0.2278,0.2299,0.2384,0.2421,0.251,0.2584,0.261,0.2721,0.2808,0.286,0.2936,0.2917,0.2861,0.2957,0.2806,0.278,0.2685,0.2646,0.2523,0.2447,0.2952,0.2952,0.2952,0,0.2142,0.2129,0.2181,0.2195,0.2216,0.2264,0.2296,0.2395,0.2442,0.2591,0.2614,0.2735,0.2807,0.2918,0.2927,0.2964,0.2864,0.2839,0.2769,0.2685,0.2637,0.2508,0.2443,0.2634,0.2631,0.2629,0.2627,0,0.2077,0.2096,0.2116,0.2144,0.2171,0.2201,0.2259,0.2295,0.2415,0.2474,0.2582,0.266,0.2792,0.2793,0.2853,0.2846,0.2672,0.2796,0.2742,0.2428,0.2251,0.2171,0.2589,0.2608,0.261,0.2611,0.2612,0.2613,0.2047,0.2047,0.2077,0.2091,0.2117,0.2128,0.2121,0.219,0.2246,0.2318,0.248,0.2549,0.2634,0.271,0.2689,0.2573,0.2563,0.2468,0.2442,0.2331,0.2208,0.2594,0.2585,0.2587,0.2589,0.259,0.2591,0,0.2004,0.2009,0.2024,0.2025,0.2004,0.2045,0.2075,0.2051,0.206,0.2187,0.2263,0.2364,0.2367,0.2413,0.2347,0.2223,0.2093,0.2151,0.1929,0.1896,0.2272,0.2211,0.208,0.208,0.208,0.208,0.208,0.208,0.1988,0.1972,0.1966,0.1908,0.1898,0.1835,0.1824,0.1814,0.1866,0.1913,0.1969,0.2065,0.2181,0.2133,0.1998,0.1939,0.1759,0.165,0.168,0.1944,0.197,0.1996,0.193,0.1741,0.1741,0.1194,0.119,0.1187]},{"header":{"parameterUnit":"m.s-1","parameterCategory":2,"la1":30.2991,"la2":30.254,"lo1":-89.0895,"lo2":-89.0444,"dy":0.0017,"dx":0.0017,"nx":28,"ny":28,"refTime":"2024-06-20T03:00:00:Z","depth":"0","parameterNumber":3,"parameterNumberName":"V-component_of_CURRENTS"},"data":[0,0,0,0,0,0,0,0,0,0,0,0,0,0,0,0,0,0,0,0,0,0,0,0,0,0,0,0,0,0,0,0,0,0,0,0,0,0,0,0,0,0,0,0,0,0,0,0,0,0,0,0,0,0,0,0,0,0,-0.0232,-0.0229,0,-0.0041,-0.004,-0.0038,0.0041,0.0041,0.0042,0.0042,0.0078,0.0078,0.0079,0,0,0,0,0,0,0,0,0,0,0,0,0,-0.0411,-0.041,-0.0232,-0.0229,-0.0226,-0.0041,-0.004,-0.0038,0.0041,0.0041,0.0042,0.0042,0.0077,0.0078,0.0079,0,0,0,0,0,0,0,0,0,0,0,0,0,-0.0296,-0.0409,-0.0233,-0.0159,-0.015,-0.0042,-0.0039,-0.0037,0.0041,0.0041,0.0042,0.0042,0.0077,0.0078,0.0079,0.0078,0,0,0.0082,0.0083,0,0,0,0,0,0,0,0,-0.0303,-0.029,-0.0173,-0.0164,-0.0154,-0.0017,-0.0089,-0.0004,0.0041,-0.0039,0.0042,0.0042,0.0036,0.0041,0.0067,0.0079,0.0081,0.0083,0.0083,0.0084,0.0084,0,0,0,0,0,0,0,-0.0311,-0.0297,-0.0164,-0.017,-0.0158,-0.0095,-0.008,-0.0072,-0.0015,-0.0032,-0.0024,0.0008,0.0039,0.0066,0.0068,0.0082,0.0083,0.0083,0.0084,0.0085,0.0118,0.0118,0,0,0,0,0,0,-0.0326,-0.0305,-0.017,-0.0157,-0.022,-0.0092,-0.0076,-0.0067,-0.0011,0.0001,0.0008,0.0012,0.0064,0.0067,0.007,0.0103,0.0084,0.0085,0.0085,0.0118,0.0118,0.0119,0,0,0,0,0,0,-0.0331,-0.0317,-0.0177,-0.022,-0.0197,-0.009,-0.008,-0.0063,-0.0026,0.0023,0.003,0.0029,0.0065,0.0068,0.009,0.0103,0.0085,0.0086,0.0118,0.0118,0.0118,0.0148,0,0,0,0,0,0,-0.0338,-0.0321,-0.032,-0.0222,-0.0194,-0.0099,-0.0079,-0.006,-0.0004,0.0003,0.0043,0.0047,0.0065,0.0089,0.0091,0.0104,0.0087,0.0117,0.0118,0.0118,0.0147,0.0149,0.0152,0,0,0,0,0,-0.0345,-0.0314,-0.0322,-0.0304,-0.0198,-0.0097,-0.0078,-0.0005,-0.0003,0.0025,0.0044,0.0046,0.0093,0.009,0.0093,0.0107,0.0117,0.0118,0.0118,0.0146,0.0149,0.0152,0,0,0,0,0,0,-0.0353,-0.0301,-0.0306,-0.0255,-0.0187,-0.0081,-0.003,-0.0007,0.0034,0.0034,0.0053,0.0059,0.0083,0.0085,0.008,0.0116,0.0103,0.0105,0.0123,0.0126,0.0129,0.0137,0.0088,0,0,0,0,0,-0.037,-0.0355,-0.0284,-0.024,-0.0209,-0.0136,-0.0087,-0.0046,0.001,0.003,0.0051,0.0068,0.0087,0.0098,0.0115,0.0133,0.0124,0.0141,0.0144,0.0146,0.0154,0.0145,0.0147,0.0121,0.0121,0.012,0,0,-0.0353,-0.0324,-0.031,-0.0245,-0.0187,-0.0123,-0.0105,-0.0023,0.0021,0.0022,0.0073,0.0076,0.0092,0.0122,0.0132,0.0127,0.0148,0.0147,0.0149,0.0155,0.0146,0.0148,0.015,0.0121,0.0121,0.0121,0,0,-0.0285,-0.0296,-0.0253,-0.0213,-0.0136,-0.0098,-0.0082,0.0002,0.0028,0.0071,0.0079,0.0089,0.0122,0.014,0.0151,0.017,0.0159,0.0171,0.0196,0.0187,0.0189,0.0191,0.018,0.018,0.0175,0.0175,0.0175,0,-0.0261,-0.0219,-0.0215,-0.0158,-0.0115,-0.0093,-0.0024,0.0007,0.0082,0.0101,0.009,0.0131,0.0134,0.0171,0.0181,0.0177,0.0169,0.0186,0.019,0.0192,0.0193,0.0182,0.0182,0.0176,0.0176,0.0176,0.0176,0,-0.0158,-0.0135,-0.0094,-0.005,-0.0008,0.0058,0.0091,0.0117,0.0124,0.0155,0.0181,0.0178,0.0204,0.0199,0.02,0.0215,0.0204,0.0193,0.0184,0.0198,0.0184,0.0184,0.0178,0.0178,0.0177,0.0177,0,0,-0.0063,-0.0034,-0.0019,-0.0002,0.0045,0.01,0.014,0.0197,0.0232,0.0242,0.0282,0.0286,0.0268,0.0277,0.0262,0.0249,0.0243,0.0227,0.0226,0.0219,0.0223,0.0223,0.0223,0.0232,0.0232,0.0233,0.0209,0,0.0025,0.0109,0.0107,0.0188,0.023,0.0226,0.0265,0.0301,0.0316,0.0348,0.0318,0.0345,0.0302,0.0306,0.0286,0.0263,0.0244,0.025,0.0209,0.0208,0.0208,0.0224,0.0265,0.0248,0.0208,0.0208,0.0208,0,0.0134,0.0164,0.0244,0.027,0.0293,0.0336,0.0381,0.0425,0.0447,0.0456,0.0454,0.043,0.0415,0.0364,0.0319,0.0326,0.0277,0.0242,0.0241,0.0233,0.0208,0.0228,0.0249,0.0181,0.0208,0.0208,0.0208,0,0.019,0.0261,0.031,0.0326,0.0368,0.0398,0.0425,0.0461,0.0506,0.052,0.054,0.051,0.0501,0.0434,0.0356,0.0339,0.03,0.0267,0.0217,0.0217,0.024,0.0241,0.0195,0.0224,0.0224,0.0224,0.0224,0,0.027,0.0315,0.0335,0.0367,0.0437,0.0445,0.0525,0.0547,0.0586,0.0656,0.0594,0.0631,0.0517,0.0477,0.0388,0.0315,0.0324,0.0229,0.0215,0.0251,0.0253,0.0185,0.0137,0.0223,0.0224,0.0224,0.0224,0,0.0322,0.0336,0.0397,0.0441,0.0463,0.0514,0.0588,0.0647,0.0666,0.0747,0.0749,0.0728,0.0684,0.0565,0.0469,0.0373,0.0255,0.0254,0.0303,0.0295,0.0176,0.0128,0.0062,0.0034,0.0194,0.0194,0.0194,0,0.0351,0.0386,0.045,0.0494,0.0518,0.0588,0.0647,0.069,0.0759,0.0827,0.0874,0.0839,0.0854,0.07,0.0533,0.0377,0.0279,0.0284,0.0251,0.0183,0.0119,0.008,0.0058,0.029,0.0291,0.0291,0.0292,0,0.0411,0.043,0.0477,0.0558,0.0625,0.071,0.0792,0.0856,0.0925,0.0992,0.1084,0.1094,0.0956,0.0838,0.0602,0.0479,0.0251,0.029,0.0213,0.0188,0.015,0.0113,0.0284,0.0297,0.0297,0.0296,0.0296,0.0296,0.0456,0.0496,0.0553,0.0634,0.0716,0.0823,0.0897,0.0994,0.1116,0.1223,0.1244,0.1296,0.11,0.0803,0.0617,0.0316,0.0295,0.0225,0.0171,0.0137,0.0115,0.0295,0.0295,0.0294,0.0294,0.0294,0.0293,0,0.051,0.0554,0.0627,0.0726,0.0819,0.0852,0.0995,0.1076,0.1222,0.1338,0.1421,0.1399,0.1154,0.0861,0.0466,0.0248,0.0155,0.0124,0.0082,0.0062,0.0227,0.0237,0.0234,0.0234,0.0234,0.0234,0.0234,0.0234,0.0544,0.0616,0.0648,0.0798,0.0869,0.0995,0.1077,0.1201,0.1313,0.1465,0.1536,0.1567,0.1398,0.0695,0.0245,0.013,-0.0018,-0.0047,-0.0135,-0.0019,-0.0014,-0.0009,-0.001,-0.0065,-0.0065,-0.0252,-0.0254,-0.0255]}],[{"header":{"parameterUnit":"m.s-1","parameterCategory":2,"la1":30.2991,"la2":30.254,"lo1":-89.0895,"lo2":-89.0444,"dy":0.0017,"dx":0.0017,"nx":28,"ny":28,"refTime":"2024-06-20T03:00:00:Z","depth":"2","parameterNumber":2,"parameterNumberName":"U-component_of_CURRENTS"},"data":[0,0,0,0,0,0,0,0,0,0,0,0,0,0,0,0,0,0,0,0,0,0,0,0,0,0,0,0,0,0,0,0,0,0,0,0,0,0,0,0,0,0,0,0,0,0,0,0,0,0,0,0,0,0,0,0,0,0,0.2349,0.235,0,0.2372,0.2372,0.2372,0.2385,0.2386,0.2387,0.2387,0.2343,0.2342,0.234,0,0,0,0,0,0,0,0,0,0,0,0,0,0.2382,0.238,0.2349,0.235,0.2351,0.2372,0.2372,0.2372,0.2385,0.2386,0.2387,0.2387,0.2344,0.2342,0.234,0,0,0,0,0,0,0,0,0,0,0,0,0,0.2377,0.238,0.2349,0.2364,0.2366,0.2373,0.2372,0.2372,0.2385,0.2386,0.2387,0.2388,0.2345,0.2342,0.234,0.2307,0,0,0.2332,0.2331,0,0,0,0,0,0,0,0,0.2377,0.2375,0.2361,0.2364,0.2366,0.2382,0.2368,0.2349,0.2385,0.2372,0.2387,0.2388,0.2353,0.235,0.2345,0.2304,0.2303,0.2332,0.233,0.2329,0.2328,0,0,0,0,0,0,0,0.2377,0.2375,0.2353,0.2362,0.2365,0.2393,0.2392,0.2365,0.2352,0.2373,0.2376,0.2387,0.2353,0.2348,0.2344,0.2302,0.2332,0.2329,0.2328,0.2327,0.2305,0.2305,0,0,0,0,0,0,0.2381,0.2374,0.2352,0.2354,0.238,0.2392,0.239,0.2371,0.2354,0.2354,0.2386,0.2388,0.2352,0.2347,0.2343,0.2352,0.2329,0.2326,0.2325,0.2304,0.2305,0.2306,0,0,0,0,0,0,0.2381,0.2378,0.2351,0.2372,0.2371,0.239,0.2369,0.2371,0.2386,0.2365,0.2363,0.2401,0.2352,0.2346,0.2334,0.2348,0.2325,0.2323,0.2303,0.2304,0.2305,0.2338,0,0,0,0,0,0,0.2381,0.2377,0.2366,0.237,0.237,0.2367,0.2369,0.2371,0.2393,0.2395,0.2377,0.2373,0.2352,0.2339,0.2332,0.2344,0.2321,0.2301,0.2303,0.2305,0.2335,0.234,0.2344,0,0,0,0,0,0.2382,0.2363,0.2364,0.2363,0.2352,0.2368,0.237,0.2384,0.2393,0.2399,0.2389,0.2374,0.2346,0.2336,0.2329,0.2341,0.23,0.2303,0.2305,0.2334,0.2339,0.2344,0,0,0,0,0,0,0.237,0.2363,0.2365,0.2343,0.2363,0.2373,0.2382,0.2394,0.239,0.2393,0.2373,0.2368,0.237,0.235,0.234,0.2343,0.2326,0.2326,0.2351,0.2355,0.236,0.2379,0.2319,0,0,0,0,0,0.2362,0.2347,0.2356,0.2345,0.2354,0.2371,0.2381,0.2393,0.2394,0.2396,0.2381,0.2371,0.2368,0.2358,0.2348,0.2334,0.2342,0.2343,0.2347,0.2351,0.2364,0.2392,0.24,0.2313,0.2313,0.2313,0,0,0.2354,0.2353,0.2343,0.2343,0.2357,0.2365,0.2378,0.2398,0.2406,0.2388,0.2384,0.2383,0.2371,0.2367,0.2366,0.2352,0.2379,0.2353,0.2356,0.2367,0.2395,0.2404,0.2411,0.2314,0.2314,0.2314,0,0,0.2342,0.2333,0.2321,0.2336,0.2363,0.2373,0.2384,0.2398,0.2407,0.2405,0.2407,0.2418,0.2389,0.2395,0.2393,0.2414,0.2407,0.2411,0.2437,0.2464,0.2472,0.2478,0.2495,0.2503,0.2405,0.2406,0.2406,0,0.2338,0.2316,0.2326,0.233,0.2347,0.2378,0.2385,0.2396,0.2404,0.2417,0.2409,0.2419,0.2408,0.2428,0.244,0.2424,0.2435,0.2414,0.247,0.2477,0.2483,0.2499,0.2507,0.2407,0.2407,0.2407,0.2407,0,0.2317,0.2312,0.2315,0.2321,0.2341,0.2356,0.2381,0.2397,0.2412,0.2426,0.2455,0.2448,0.2459,0.2462,0.2453,0.2498,0.249,0.2477,0.2456,0.2494,0.2508,0.2516,0.241,0.2409,0.2409,0.2408,0,0,0.227,0.2293,0.2293,0.2304,0.234,0.2353,0.2379,0.2412,0.2441,0.245,0.2484,0.2495,0.2512,0.2513,0.2514,0.2539,0.259,0.2529,0.253,0.2546,0.2649,0.2605,0.2609,0.2588,0.2589,0.2591,0.264,0,0.2254,0.2261,0.2277,0.2292,0.2302,0.2345,0.2368,0.2407,0.2442,0.2477,0.2505,0.2531,0.2524,0.2539,0.2566,0.2592,0.2615,0.2578,0.2612,0.2613,0.2568,0.2618,0.2381,0.2401,0.2647,0.2649,0.265,0,0.2216,0.2235,0.2244,0.2288,0.2297,0.2312,0.2375,0.2402,0.247,0.25,0.2547,0.2568,0.2618,0.2601,0.2666,0.2644,0.2654,0.2667,0.2669,0.2624,0.2584,0.2405,0.2407,0.2663,0.2662,0.2661,0.266,0,0.2175,0.2205,0.2216,0.2229,0.2281,0.2302,0.2339,0.241,0.2447,0.2525,0.2558,0.2618,0.265,0.2684,0.2714,0.2695,0.2782,0.2751,0.2719,0.2715,0.2519,0.2495,0.2796,0.2796,0.2796,0.2796,0.2796,0,0.2139,0.2146,0.2199,0.2203,0.2231,0.2282,0.2326,0.2378,0.2458,0.2506,0.2567,0.2613,0.2675,0.2724,0.274,0.2764,0.2801,0.2742,0.2733,0.2523,0.25,0.273,0.2721,0.2798,0.2797,0.2797,0.2797,0,0.208,0.2111,0.2128,0.2187,0.2207,0.2229,0.2313,0.2348,0.2433,0.25,0.2524,0.2627,0.2701,0.275,0.2817,0.2791,0.2819,0.2812,0.2562,0.2523,0.2724,0.2717,0.2781,0.278,0.2779,0.2778,0.2778,0,0.2047,0.205,0.2106,0.2121,0.2146,0.2194,0.2226,0.2322,0.2365,0.2501,0.2521,0.2629,0.2678,0.2765,0.2752,0.2769,0.2828,0.2551,0.2473,0.2742,0.2727,0.2721,0.2715,0.2219,0.2214,0.221,0.2206,0,0.1999,0.2019,0.2042,0.2073,0.2101,0.2132,0.2189,0.222,0.2332,0.2384,0.2473,0.2531,0.262,0.2538,0.2569,0.2546,0.253,0.2468,0.2814,0.227,0.2219,0.2202,0.2214,0.2169,0.2173,0.2176,0.2178,0.2179,0.1969,0.1971,0.2002,0.2019,0.2047,0.2059,0.2053,0.2114,0.2159,0.2211,0.2346,0.2345,0.2375,0.2309,0.2245,0.219,0.2369,0.2239,0.2248,0.2263,0.22,0.2151,0.2076,0.2079,0.2082,0.2084,0.2086,0,0.1924,0.1932,0.1948,0.1955,0.1938,0.1982,0.2007,0.1979,0.1976,0.2053,0.2097,0.195,0.1888,0.1926,0.1777,0.1777,0.1729,0.1705,0.1607,0.1646,0.1681,0.1584,0.1299,0.1296,0.1294,0.1292,0,0,0.1906,0.1892,0.1888,0.1838,0.1836,0.1782,0.177,0.1747,0.1765,0.1733,0.1703,0.1829,0.1881,0.1575,0.1528,0.1386,0.1507,0.1331,0.1965,0.189,0.1921,0.1994,0.1891,0,0,0,0,0]},{"header":{"parameterUnit":"m.s-1","parameterCategory":2,"la1":30.2991,"la2":30.254,"lo1":-89.0895,"lo2":-89.0444,"dy":0.0017,"dx":0.0017,"nx":28,"ny":28,"refTime":"2024-06-20T03:00:00:Z","depth":"2","parameterNumber":3,"parameterNumberName":"V-component_of_CURRENTS"},"data":[0,0,0,0,0,0,0,0,0,0,0,0,0,0,0,0,0,0,0,0,0,0,0,0,0,0,0,0,0,0,0,0,0,0,0,0,0,0,0,0,0,0,0,0,0,0,0,0,0,0,0,0,0,0,0,0,0,0,0.0166,0.0165,0,0.01,0.01,0.01,0.0102,0.0102,0.0103,0.0103,0.0125,0.0126,0.0126,0,0,0,0,0,0,0,0,0,0,0,0,0,0.0224,0.0224,0.0166,0.0164,0.0163,0.01,0.01,0.01,0.0102,0.0102,0.0103,0.0103,0.0125,0.0126,0.0126,0,0,0,0,0,0,0,0,0,0,0,0,0,0.0188,0.0224,0.0166,0.0152,0.015,0.01,0.01,0.01,0.0102,0.0102,0.0103,0.0104,0.0125,0.0126,0.0126,0.0117,0,0,0.0127,0.0127,0,0,0,0,0,0,0,0,0.019,0.0187,0.0156,0.0153,0.015,0.0105,0.0128,0.0108,0.0102,0.0126,0.0103,0.0104,0.0122,0.0123,0.0116,0.0118,0.0119,0.0127,0.0127,0.0127,0.0127,0,0,0,0,0,0,0,0.0193,0.0189,0.0146,0.0154,0.0151,0.0125,0.0122,0.0124,0.0128,0.0124,0.0123,0.0106,0.0123,0.0116,0.0117,0.0119,0.0127,0.0127,0.0128,0.0128,0.0144,0.0144,0,0,0,0,0,0,0.0192,0.0192,0.0148,0.0143,0.0166,0.0124,0.0121,0.0124,0.0126,0.0125,0.0106,0.0106,0.0115,0.0117,0.0118,0.0143,0.0127,0.0128,0.0128,0.0144,0.0144,0.0144,0,0,0,0,0,0,0.0194,0.019,0.015,0.016,0.0153,0.0122,0.0126,0.0122,0.0112,0.011,0.0112,0.0099,0.0116,0.0118,0.013,0.0143,0.0128,0.0128,0.0143,0.0144,0.0144,0.017,0,0,0,0,0,0,0.0197,0.0192,0.0195,0.0161,0.0152,0.0123,0.0124,0.012,0.0098,0.0099,0.0104,0.0107,0.0116,0.013,0.0131,0.0143,0.0128,0.0143,0.0143,0.0144,0.0169,0.0171,0.0173,0,0,0,0,0,0.0199,0.0198,0.0196,0.019,0.0158,0.0122,0.0116,0.0099,0.0097,0.0094,0.0105,0.0107,0.0133,0.013,0.0131,0.0144,0.0143,0.0143,0.0144,0.0168,0.0171,0.0173,0,0,0,0,0,0,0.022,0.0196,0.0194,0.0186,0.0157,0.0121,0.0105,0.0095,0.0097,0.0101,0.0109,0.0113,0.0129,0.0128,0.0125,0.0148,0.0138,0.0138,0.0156,0.0158,0.016,0.017,0.0129,0,0,0,0,0,0.0226,0.0225,0.0191,0.0183,0.0167,0.0137,0.0119,0.0108,0.0098,0.0098,0.0106,0.0116,0.013,0.0138,0.0146,0.0156,0.0147,0.0164,0.0166,0.0168,0.0176,0.0169,0.0172,0.0146,0.0146,0.0146,0,0,0.023,0.0215,0.0213,0.0187,0.0163,0.0152,0.0129,0.01,0.0108,0.0102,0.0121,0.0121,0.0133,0.0152,0.0159,0.0155,0.0169,0.0169,0.017,0.0177,0.017,0.0173,0.0175,0.0146,0.0146,0.0146,0,0,0.0224,0.0223,0.0214,0.0198,0.016,0.0151,0.0142,0.0111,0.0115,0.0123,0.0128,0.0136,0.0151,0.0166,0.0175,0.019,0.0179,0.019,0.0212,0.0206,0.0208,0.021,0.0194,0.0194,0.0193,0.0193,0.0193,0,0.0225,0.0226,0.0202,0.019,0.0188,0.0155,0.0154,0.0148,0.0132,0.0149,0.0136,0.0161,0.0162,0.0196,0.0202,0.0196,0.0187,0.0204,0.0209,0.0211,0.0212,0.0196,0.0196,0.0194,0.0194,0.0194,0.0194,0,0.0213,0.022,0.0209,0.0204,0.0197,0.0187,0.0179,0.0182,0.0184,0.0187,0.0209,0.0201,0.022,0.0216,0.0216,0.0232,0.0219,0.0211,0.0204,0.0217,0.0198,0.0198,0.0196,0.0196,0.0195,0.0195,0,0,0.0212,0.0206,0.0207,0.0225,0.0213,0.0212,0.0229,0.0246,0.0276,0.0256,0.029,0.0292,0.0278,0.0286,0.0274,0.0264,0.0256,0.0244,0.0243,0.023,0.0236,0.0225,0.0223,0.025,0.025,0.025,0.0215,0,0.0215,0.022,0.0218,0.0247,0.0258,0.026,0.0289,0.0304,0.0319,0.0343,0.0325,0.0346,0.0309,0.0313,0.0297,0.0276,0.0258,0.0266,0.0223,0.0222,0.0213,0.0223,0.0239,0.0209,0.0215,0.0215,0.0215,0,0.0214,0.0227,0.0254,0.0303,0.0307,0.0325,0.0387,0.0408,0.0432,0.0442,0.0443,0.0423,0.0411,0.0366,0.0325,0.0333,0.0286,0.0254,0.0252,0.0236,0.0211,0.0199,0.0208,0.0214,0.0214,0.0214,0.0214,0,0.0247,0.0264,0.0302,0.0313,0.0348,0.0377,0.0404,0.0442,0.0484,0.05,0.0519,0.0496,0.0488,0.0427,0.0353,0.0341,0.0298,0.0275,0.0216,0.0214,0.0216,0.0214,0.0235,0.0235,0.0235,0.0235,0.0235,0,0.0271,0.0303,0.0322,0.0347,0.0412,0.0419,0.0495,0.0518,0.0557,0.062,0.0569,0.0598,0.0502,0.0461,0.0379,0.0303,0.0317,0.0224,0.0209,0.0224,0.0224,0.0221,0.022,0.0233,0.0234,0.0234,0.0234,0,0.0304,0.0313,0.0364,0.0407,0.043,0.0479,0.0552,0.0607,0.0628,0.0701,0.0703,0.0682,0.0635,0.0527,0.0438,0.035,0.0269,0.0232,0.0251,0.0239,0.0177,0.0178,0.0165,0.0164,0.0163,0.0163,0.0163,0,0.0321,0.0349,0.0412,0.0454,0.0477,0.0546,0.0602,0.0646,0.0709,0.0765,0.0806,0.0767,0.0767,0.0617,0.0463,0.0315,0.0281,0.0211,0.0188,0.0186,0.0172,0.0174,0.0175,0.0195,0.0195,0.0195,0.0195,0,0.0367,0.0387,0.0431,0.0508,0.0573,0.0653,0.0731,0.0787,0.0851,0.0905,0.0972,0.0968,0.0831,0.0695,0.0476,0.0369,0.0235,0.0205,0.0211,0.0212,0.0213,0.02,0.02,0.0195,0.0195,0.0195,0.0195,0.0195,0.0407,0.0444,0.0498,0.0575,0.0654,0.075,0.0816,0.0899,0.1001,0.1078,0.1087,0.1083,0.0915,0.0648,0.0457,0.0242,0.0258,0.0166,0.0167,0.0168,0.0179,0.0179,0.0156,0.0156,0.0156,0.0156,0.0156,0,0.0454,0.0494,0.0562,0.0655,0.0739,0.0773,0.0899,0.0964,0.1078,0.1149,0.1198,0.1039,0.0884,0.0676,0.0375,0.0195,0.0173,0.0116,0.0134,0.0136,0.0138,0.0148,0.0116,0.0116,0.0115,0.0114,0,0,0.0483,0.0548,0.0576,0.0709,0.0776,0.0887,0.0956,0.1053,0.1127,0.1191,0.1193,0.1184,0.0954,0.0719,0.0478,0.0299,0.0251,0.0252,0.0306,0.036,0.0363,0.0193,0.0215,0,0,0,0,0]}],[{"header":{"parameterUnit":"m.s-1","parameterCategory":2,"la1":30.2991,"la2":30.254,"lo1":-89.0895,"lo2":-89.0444,"dy":0.0017,"dx":0.0017,"nx":28,"ny":28,"refTime":"2024-06-20T03:00:00:Z","depth":"4","parameterNumber":2,"parameterNumberName":"U-component_of_CURRENTS"},"data":[0,0,0,0,0,0,0,0,0,0,0,0,0,0,0,0,0,0,0,0,0,0,0,0,0,0,0,0,0,0,0,0,0,0,0,0,0,0,0,0,0,0,0,0,0,0,0,0,0,0,0,0,0,0,0,0,0,0,0.1542,0.1544,0,0.168,0.1682,0.1683,0.1778,0.1779,0.178,0.1781,0.1834,0.1834,0.1835,0,0,0,0,0,0,0,0,0,0,0,0,0,0.1413,0.1414,0.1542,0.1544,0.1546,0.168,0.1682,0.1683,0.1778,0.1779,0.178,0.1781,0.1833,0.1834,0.1835,0,0,0,0,0,0,0,0,0,0,0,0,0,0.1499,0.1414,0.1542,0.1611,0.1619,0.168,0.1682,0.1684,0.1778,0.1779,0.178,0.1782,0.1833,0.1834,0.1835,0.1811,0,0,0.1837,0.1837,0,0,0,0,0,0,0,0,0.1494,0.1503,0.1599,0.1607,0.1616,0.1716,0.1656,0.1723,0.1777,0.1714,0.1781,0.1782,0.1787,0.1792,0.1812,0.1813,0.1815,0.1837,0.1838,0.1838,0.1838,0,0,0,0,0,0,0,0.1487,0.1498,0.1594,0.1601,0.1611,0.1654,0.1667,0.1669,0.1737,0.172,0.1728,0.1747,0.1791,0.1811,0.1813,0.1816,0.1837,0.1838,0.1838,0.1839,0.1908,0.1909,0,0,0,0,0,0,0.1472,0.1492,0.159,0.1598,0.156,0.1655,0.167,0.168,0.1739,0.1751,0.1746,0.1751,0.1809,0.1812,0.1816,0.1882,0.1838,0.1839,0.1839,0.1907,0.1908,0.191,0,0,0,0,0,0,0.1468,0.1479,0.1584,0.1551,0.1568,0.1656,0.1667,0.1682,0.1744,0.1761,0.1771,0.1797,0.181,0.1814,0.1853,0.1881,0.1839,0.184,0.1905,0.1907,0.1909,0.1956,0,0,0,0,0,0,0.1464,0.1476,0.1495,0.155,0.1569,0.1647,0.1666,0.1684,0.1752,0.1762,0.1806,0.1811,0.1812,0.1852,0.1854,0.1881,0.184,0.1903,0.1906,0.1908,0.1952,0.1959,0.1965,0,0,0,0,0,0.1458,0.1482,0.1495,0.1508,0.1586,0.1649,0.1664,0.1728,0.1754,0.1788,0.1817,0.1812,0.187,0.1854,0.1856,0.1884,0.1902,0.1905,0.1908,0.1949,0.1958,0.1965,0,0,0,0,0,0,0.1452,0.1495,0.1511,0.1551,0.1606,0.1667,0.1713,0.1747,0.18,0.1816,0.1825,0.1832,0.1879,0.1873,0.1855,0.1913,0.1886,0.189,0.1917,0.1925,0.1931,0.1935,0.1841,0,0,0,0,0,0.1451,0.1476,0.1527,0.1565,0.1592,0.1655,0.1695,0.1738,0.1784,0.1813,0.1839,0.1865,0.1886,0.1901,0.1919,0.1942,0.194,0.1963,0.197,0.1975,0.198,0.2005,0.2013,0.192,0.192,0.192,0,0,0.1459,0.149,0.1506,0.1565,0.1613,0.1658,0.1684,0.1757,0.1797,0.1804,0.187,0.189,0.1899,0.1937,0.1956,0.1939,0.2001,0.1979,0.1983,0.1986,0.2009,0.2018,0.2026,0.1922,0.1922,0.1921,0,0,0.1486,0.1516,0.1545,0.1586,0.1661,0.1693,0.1719,0.1791,0.1832,0.1885,0.1903,0.1944,0.1974,0.1991,0.1998,0.2046,0.2037,0.2056,0.2086,0.211,0.2117,0.2124,0.2131,0.2139,0.2054,0.2054,0.2054,0,0.1501,0.1535,0.1569,0.161,0.165,0.1708,0.1753,0.1796,0.1874,0.19,0.1914,0.1985,0.1998,0.2036,0.2062,0.2061,0.2068,0.2055,0.2117,0.2124,0.213,0.2136,0.2143,0.2057,0.2057,0.2056,0.2056,0,0.1536,0.1578,0.1606,0.1661,0.1706,0.1762,0.1813,0.1863,0.191,0.1948,0.2014,0.2039,0.2079,0.2093,0.2094,0.2147,0.2136,0.2125,0.2096,0.2142,0.2145,0.2152,0.2061,0.206,0.2059,0.2058,0,0,0.1529,0.1611,0.1625,0.1655,0.1739,0.1775,0.1837,0.1901,0.1945,0.201,0.2061,0.2113,0.2138,0.2149,0.2161,0.2186,0.2239,0.2181,0.2181,0.2184,0.2287,0.214,0.2133,0.2243,0.2244,0.2245,0.2271,0,0.1553,0.1622,0.166,0.1729,0.1766,0.1825,0.1871,0.1936,0.1993,0.2052,0.2092,0.2146,0.2153,0.2182,0.2212,0.2239,0.2259,0.2232,0.2246,0.2246,0.2106,0.2137,0.225,0.2276,0.2277,0.2279,0.2279,0,0.1565,0.1611,0.1678,0.1751,0.1773,0.1823,0.1903,0.1957,0.2041,0.2085,0.2147,0.2181,0.2241,0.2234,0.2298,0.2285,0.2294,0.2305,0.2305,0.2155,0.2111,0.2222,0.2291,0.229,0.2289,0.2288,0.2288,0,0.1524,0.1618,0.1668,0.1697,0.1789,0.1831,0.1888,0.1975,0.2021,0.2116,0.2155,0.2226,0.2269,0.2302,0.2335,0.2326,0.239,0.2372,0.2243,0.2233,0.2338,0.233,0.2407,0.2407,0.2407,0.2407,0.2407,0,0.1509,0.1554,0.1658,0.1684,0.1743,0.1819,0.189,0.1953,0.2046,0.2092,0.2174,0.2208,0.2293,0.2334,0.2351,0.2313,0.2401,0.225,0.2229,0.2356,0.235,0.2342,0.2334,0.2408,0.2407,0.2407,0.2407,0,0.145,0.1522,0.1582,0.1689,0.1725,0.177,0.1886,0.1927,0.2028,0.2091,0.2121,0.2218,0.2266,0.2323,0.2379,0.2312,0.2305,0.2269,0.2403,0.239,0.2127,0.2122,0.2115,0.211,0.2106,0.2102,0.2099,0,0.1421,0.145,0.157,0.1606,0.1661,0.1743,0.1791,0.1906,0.1946,0.2074,0.2081,0.2172,0.2219,0.2172,0.2251,0.2253,0.2231,0.2197,0.2156,0.2116,0.2098,0.2099,0.21,0.2092,0.2091,0.209,0.2089,0,0.1364,0.1421,0.1471,0.1547,0.1609,0.1662,0.1742,0.1756,0.1873,0.1976,0.1985,0.2001,0.2046,0.2078,0.2093,0.2095,0.2201,0.2152,0.216,0.2121,0.2089,0.2076,0.2081,0.2074,0.2077,0.2078,0.2079,0,0.1325,0.1343,0.1419,0.1468,0.154,0.1559,0.1614,0.165,0.1699,0.1828,0.1831,0.1928,0.2027,0.1997,0.2018,0.2001,0.1968,0.1887,0.1909,0.1926,0.1852,0.1782,0.1654,0,0,0,0,0,0.1277,0.1286,0.1331,0.1376,0.1439,0.148,0.1566,0.162,0.1725,0.168,0.1749,0.178,0.1793,0.1849,0.1795,0.1946,0.1988,0.1873,0.1909,0.1993,0.201,0.194,0,0,0,0,0,0,0.1247,0.129,0.1298,0.1286,0.1295,0.135,0.1401,0.1476,0.1455,0.1567,0.1588,0.1663,0.1714,0.1808,0.176,0.1775,0.1757,0.1937,0.1931,0.1984,0.1999,0.2013,0.1947,0,0,0,0,0]},{"header":{"parameterUnit":"m.s-1","parameterCategory":2,"la1":30.2991,"la2":30.254,"lo1":-89.0895,"lo2":-89.0444,"dy":0.0017,"dx":0.0017,"nx":28,"ny":28,"refTime":"2024-06-20T03:00:00:Z","depth":"4","parameterNumber":3,"parameterNumberName":"V-component_of_CURRENTS"},"data":[0,0,0,0,0,0,0,0,0,0,0,0,0,0,0,0,0,0,0,0,0,0,0,0,0,0,0,0,0,0,0,0,0,0,0,0,0,0,0,0,0,0,0,0,0,0,0,0,0,0,0,0,0,0,0,0,0,0,0.0208,0.0207,0,0.0148,0.0148,0.0148,0.0147,0.0147,0.0148,0.0148,0.0164,0.0164,0.0165,0,0,0,0,0,0,0,0,0,0,0,0,0,0.0267,0.0267,0.0208,0.0207,0.0205,0.0148,0.0148,0.0148,0.0147,0.0147,0.0148,0.0148,0.0164,0.0164,0.0165,0,0,0,0,0,0,0,0,0,0,0,0,0,0.0232,0.0267,0.0208,0.0195,0.0193,0.0149,0.0148,0.0148,0.0147,0.0147,0.0148,0.0149,0.0164,0.0164,0.0165,0.0154,0,0,0.0165,0.0165,0,0,0,0,0,0,0,0,0.0234,0.0231,0.0198,0.0196,0.0194,0.0152,0.0175,0.0152,0.0147,0.0169,0.0148,0.0149,0.0164,0.0164,0.0157,0.0155,0.0156,0.0165,0.0165,0.0165,0.0165,0,0,0,0,0,0,0,0.0237,0.0233,0.0188,0.0197,0.0194,0.0174,0.0171,0.017,0.0169,0.0167,0.0166,0.0152,0.0164,0.0157,0.0157,0.0156,0.0165,0.0165,0.0165,0.0165,0.0175,0.0175,0,0,0,0,0,0,0.0238,0.0235,0.019,0.0186,0.0211,0.0172,0.0169,0.0168,0.0167,0.0166,0.0152,0.0152,0.0156,0.0157,0.0158,0.0178,0.0165,0.0165,0.0165,0.0174,0.0175,0.0175,0,0,0,0,0,0,0.024,0.0235,0.0193,0.0205,0.0198,0.0171,0.017,0.0167,0.0157,0.0154,0.0155,0.0146,0.0157,0.0158,0.0166,0.0177,0.0165,0.0165,0.0174,0.0174,0.0175,0.0197,0,0,0,0,0,0,0.0242,0.0236,0.0239,0.0206,0.0197,0.0167,0.0169,0.0165,0.0146,0.0147,0.0149,0.0151,0.0157,0.0166,0.0166,0.0177,0.0166,0.0174,0.0174,0.0175,0.0196,0.0198,0.0199,0,0,0,0,0,0.0244,0.024,0.0239,0.0233,0.0201,0.0166,0.0161,0.0145,0.0145,0.014,0.0149,0.0151,0.0168,0.0166,0.0166,0.0178,0.0174,0.0174,0.0175,0.0195,0.0197,0.0199,0,0,0,0,0,0,0.0262,0.0238,0.0237,0.0225,0.0199,0.0165,0.0152,0.0142,0.0142,0.0146,0.0151,0.0154,0.0166,0.0164,0.0162,0.018,0.0171,0.0172,0.0187,0.0189,0.0191,0.02,0.0166,0,0,0,0,0,0.0268,0.0263,0.0232,0.0223,0.0209,0.0181,0.0165,0.0154,0.0144,0.0143,0.0147,0.0154,0.0166,0.0172,0.0177,0.0184,0.0176,0.0191,0.0193,0.0195,0.0202,0.0198,0.02,0.0176,0.0176,0.0176,0,0,0.027,0.0256,0.0253,0.0226,0.0205,0.0191,0.0174,0.0147,0.015,0.0146,0.0157,0.0159,0.0168,0.0182,0.0187,0.0184,0.0194,0.0195,0.0197,0.0203,0.0199,0.0201,0.0203,0.0176,0.0176,0.0176,0,0,0.026,0.026,0.0248,0.0233,0.0199,0.019,0.0183,0.0152,0.0155,0.0157,0.0163,0.0171,0.018,0.0193,0.0202,0.0213,0.0203,0.0212,0.0232,0.0228,0.023,0.0232,0.0213,0.0213,0.0215,0.0215,0.0215,0,0.0262,0.0255,0.0237,0.0221,0.0218,0.0193,0.0187,0.0181,0.0163,0.0179,0.0166,0.0188,0.0189,0.0219,0.0224,0.0219,0.0208,0.0225,0.0231,0.0233,0.0234,0.0214,0.0214,0.0216,0.0216,0.0216,0.0216,0,0.0241,0.0243,0.0231,0.0222,0.0216,0.0203,0.0196,0.0199,0.0202,0.0205,0.0225,0.0219,0.0236,0.0234,0.0234,0.0251,0.0236,0.0232,0.0227,0.0238,0.0216,0.0215,0.0218,0.0218,0.0217,0.0217,0,0,0.0232,0.0222,0.0222,0.0236,0.0223,0.0221,0.0233,0.0248,0.0275,0.0257,0.0287,0.0292,0.0285,0.0292,0.0285,0.0278,0.0271,0.0261,0.026,0.0244,0.0251,0.0226,0.0222,0.0268,0.0268,0.0269,0.0227,0,0.0225,0.022,0.0218,0.0237,0.0241,0.0249,0.0272,0.0288,0.0303,0.0324,0.0317,0.0337,0.0309,0.0315,0.0304,0.0288,0.0272,0.0282,0.0241,0.0239,0.0218,0.0222,0.027,0.0226,0.0226,0.0226,0.0226,0,0.0208,0.0217,0.0233,0.0276,0.0279,0.0294,0.0351,0.0368,0.0395,0.0405,0.0412,0.0399,0.0395,0.036,0.0327,0.0334,0.0294,0.0267,0.0265,0.0237,0.0214,0.0215,0.0224,0.0225,0.0225,0.0225,0.0225,0,0.0226,0.0236,0.0265,0.0273,0.0305,0.0332,0.0359,0.0398,0.0435,0.0455,0.0473,0.0459,0.0455,0.0406,0.0343,0.0337,0.0294,0.0281,0.0215,0.0212,0.0237,0.0236,0.0247,0.0247,0.0248,0.0248,0.0248,0,0.0231,0.0255,0.0279,0.0296,0.0354,0.0365,0.0433,0.0457,0.0495,0.0546,0.0516,0.0533,0.0467,0.0429,0.0361,0.0287,0.0306,0.022,0.0204,0.0245,0.0245,0.0236,0.0235,0.0246,0.0246,0.0247,0.0247,0,0.0243,0.0254,0.0295,0.034,0.0363,0.0407,0.048,0.0527,0.0553,0.061,0.0613,0.0597,0.0548,0.0466,0.0389,0.0318,0.0245,0.0209,0.0252,0.024,0.0157,0.0158,0.0135,0.0134,0.0133,0.0132,0.0131,0,0.0248,0.0268,0.0332,0.0369,0.0393,0.0459,0.051,0.0557,0.0605,0.065,0.0674,0.064,0.0611,0.0484,0.0393,0.0255,0.0228,0.0177,0.0168,0.016,0.0148,0.015,0.0152,0.013,0.0129,0.0129,0.0129,0,0.0269,0.0292,0.0331,0.0401,0.0461,0.0533,0.0601,0.0636,0.0692,0.0712,0.0724,0.0654,0.0596,0.0488,0.0377,0.0278,0.0206,0.0166,0.0167,0.0158,0.0154,0.0143,0.0146,0.0126,0.0126,0.0126,0.0127,0,0.0293,0.0322,0.0372,0.0437,0.0514,0.0584,0.0619,0.0669,0.0715,0.0749,0.0754,0.0686,0.0654,0.05,0.0404,0.0298,0.0264,0.0214,0.0212,0.0214,0.0244,0.025,0.0241,0,0,0,0,0,0.0312,0.0346,0.0404,0.0476,0.0548,0.0591,0.0674,0.07,0.0745,0.0756,0.0755,0.0698,0.0557,0.0505,0.0395,0.0373,0.0238,0.0237,0.0177,0.0107,0.0111,0.013,0,0,0,0,0,0,0.0328,0.0379,0.0402,0.0494,0.0543,0.0627,0.0679,0.0707,0.0713,0.0737,0.0669,0.0646,0.0516,0.0617,0.0385,0.0355,0.0295,0.018,0.0177,0.0105,0.0109,0.0112,0.0132,0,0,0,0,0]}]]